Retour au catalogue

STARLINK-4452

ActifCommunicationsSSO
NORAD 53658·PAYLOAD·🇺🇸 United States

Lancé Aug 31, 2022 depuis Vandenberg Space Force Base

Loading…

Prochains Passages (prochaines 24 heures)

TLE

FraisSource: CelesTrak SupGP

Époque: Sep 15, 2026, 01:59 UTC

1 53658C 22105L   26258.08312500  .00071349  00000+0  22147-2 0  2588
2 53658  97.2846 134.8370 0001557  97.5666 244.0593 15.33405184    10

Suivez STARLINK-4452 en temps réel avec AllMySat

Download on the App Store